THORAD DELTA 1 DEB, 8310

Orbit data source: Space-Track

THORAD DELTA 1 DEB, 8310 is space debris in SSO originally from a launch on Fri, 15 Nov 1974 UTC launched from the Air Force Western Test Range (AFWTR). Debris objects in space refer to the collection of defunct objects orbiting the Earth. Examples of debris include non-operational satellites, rocket bodies, and fragments generated from explosions, collisions, or faulty payload assembly.

Loading next visibility...
Identifier
8310, 1974-089BT
Orbit
SSO
Country
Flag of USUS
Related business
Manufacturer
Unknown
Mission
Spacecraft
Bus & Motor
Unknown
Mass
Unknown
Launch date (UTC)
1974-11-15 (51 years ago)
Launch vehicle
Unknown
Launch site
Air Force Western Test Range (AFWTR)
Object type
Payload
Rocket body
Debris
Shape & HBR
Unknown shape, 0.8 m
Radar Cross Section
Medium (>0.1 m² and <1 m²)

Expand to show TLE details & history
Last TLE update: 7 hours ago

TLE from 7 hours ago
0 THORAD DELTA 1 DEB
1  8310U 74089BT  26130.21345821 -.00000009  00000-0  24602-3 0  9995
2  8310 101.5723 111.0424 0065779 293.0400  77.9596 12.40382975330716
Epoch: 2026-05-10T05:07Z
TLE epoch observation values (Epoch: 2026-05-10T05:07:22.789Z)
Latitude
11.45602°
Longitude
163.81106°
Altitude
1,496.306 km
Speed
7.122 km/s
True Right ascension
07h 14m 42s
True Declination
11° 23' 44"
Sunlit
Object was in daylight at epoch
Visualization orbit readout
Latitude
Unknown
Longitude
Unknown
Altitude
Unknown
Speed
Unknown
Apparent Right ascension
Unknown
Apparent Declination
Unknown
Sunlit
N/A
Visualization observer readout
Local Sidereal Time
20:22:13
Azimuth
Unknown
Elevation
Unknown
Doppler factor
Unknown
Orbital elements
Apogee altitude
1,554.367 km
Perigee altitude
1,450.691 km
Semi-major axis
7,880.666 km
Eccentricity
0.00658
Inclination
101.5723°
RAAN
111.0424°
Arg. of periapsis
293.04°
True anomaly
78.69804°
Mean anomaly
77.9596°
Eccentric anomaly
78.32869°
Mean motion
3.10241 °/min
Orbital period
116.04 mins
BSTAR
0.00024602
Loading maneuver chart data...
Computing Atmospheric mass density...

Documentation

Showing up to 5 results
|